Location: Champseau
(45.8333°N, 1.7667°E)
Time: 06:57:06
(UTC+00:00)

ALOS 2 - Pass Details

Date: 18 April 2021
Orbit: 630 x 632 km, 97.9° (Epoch: 15 May)

Event Time Altitude Azimuth Distance (km) Brightness Sun altitude
Exits shadow 22:50:05 28° 19° (NNE) 1,193 4.4 -31.3°
Drops below altitude 10° 22:52:27 10° 360° (N) 2,024 6.0 -31.4°
Sets 22:54:44 0° 353° (N) 2,936 7.1 -31.6°
